SCP
1 1 0 0 0 0 0 0 0 0 0 0 0 1 1 0 0 0 0 0 0 0 0 0 0 0 0 0 0 0 0 0 0 0 0 0 0 0 0 0 0 0 0
1 1 0 0 0 0 0 0 0 0 0 0 0 0 0 0 0 0 0 0 0 0 0 0 0 0 0 0 0 0 0 0 0 0 0 0 0 0 0 0 0 0 0
1 0 0 0 0 0 0 0 0 0 0 0 0 0 0 0 0 0 0 0 0 0 0 0 0 0 0 0 0 0 0 0 0 0 0 0 0 0 0 0 0 0 0
0 0 0 0 0 0 0 0 0 0 0 0 0 0 0 0 0 0 0 0 0 0 0 0 0 0 0 0 0 0 0 0 0 0 0 0 0 0 0 0 0 0 0
0 0 0 0 0 0 0 0 0 0 0 0 0 0 0 0 0 0 0 0 0 0 0 0 0 0 0 0 0 0 0 0 0 0 0 0 0 0 0 0 0 0 0
0 0 0 0 0 0 0 0 0 0 0 0 0 0 0 0 0 0 0 0 0 0 0 0 0 0 0 0 0 0 0 0 0 0 0 0 0 0 0 0 0 0 0
0 0 0 0 0 0 0 0 0 0 0 0 0 0 0 0 0 0 0 0 0 0 0 0 0 0 0 0 0 0 0 0 0 0 0 0 0 0 0 0 0 0 0
0 0 0 0 0 0 0 0 0 0 0 0 0 0 0 0 0 0 0 0 0 0 0 0 0 0 0 0 0 0 0 0 0 0 0 0 0 0 0 0 0 0 0
0 0 0 0 0 0 0 0 0 0 0 0 0 0 0 0 0 0 0 0 0 0 0 0 0 0 0 0 0 0 0 0 0 0 0 0 0 0 0 0 0 0 0
0 0 0 0 0 0 0 0 0 0 0 0 0 0 0 0 0 0 0 0 0 0 0 0 0 0 0 0 0 0 0 0 0 0 0 0 0 0 0 0 0 0 0
0 0 0 0 0 0 0 0 0 0 0 0 0 0 0 0 0 0 0 0 0 0 0 0 0 0 0 0 0 0 0 0 0 0 0 0 0 0 0 0 0 0 0
0 0 0 0 0 0 0 0 0 0 0 0 0 0 0 0 0 0 0 0 0 0 0 0 0 0 0 0 0 0 0 0 0 0 0 0 0 0 0 0 0 0 0
0 0 0 0 0 0 0 0 0 0 0 0 0 0 0 0 0 0 0 0 0 0 0 0 0 0 0 0 0 0 0 0 0 0 0 0 0 0 0 0 0 0 0
0 0 0 0 0 0 0 0 0 0 0 0 0 0 0 0 0 0 0 0 0 0 0 0 0 0 0 0 0 0 0 0 0 0 0 0 0 0 0 0 0 0 0
0 0 0 0 0 0 0 0 0 0 0 0 0 0 0 0 0 0 0 0 0 0 0 0 0 0 0 0 0 0 0 0 0 0 0 0 0 0 0 0 0 0 0
0 0 0 0 0 0 0 0 0 0 0 0 0 0 0 0 0 0 0 0 0 0 0 0 0 0 0 0 0 0 0 0 0 0 0 0 0 0 0 0 0 0 0
0 0 0 0 0 0 0 0 0 0 0 0 0 0 0 0 0 0 0 0 0 0 0 0 0 0 0 0 0 0 0 0 0 0 0 0 0 0 0 0 0 0 0
0 0 0 0 0 0 0 0 0 0 0 0 0 0 0 0 0 0 0 0 0 0 0 0 0 0 0 0 0 0 0 0 0 0 0 0 0 0 0 0 0 0 0
0 0 0 0 0 0 0 0 0 0 0 0 0 0 0 0 0 0 0 0 0 0 0 0 0 0 0 0 0 0 0 0 0 0 0 0 0 0 0 0 0 0 0
0 0 0 0 0 0 0 0 0 0 0 0 0 0 0 0 0 0 0 0 0 0 0 0 0 0 0 0 0 0 0 0 0 0 0 0 0 0 0 0 0 0 0
0 0 0 0 0 0 0 0 0 0 0 0 0 0 0 0 0 0 0 0 0 0 0 0 0 0 0 0 0 0 0 0 0 0 0 0 0 0 0 0 0 0 0
0 0 0 0 0 0 0 0 0 0 0 0 0 0 0 0 0 0 0 0 0 0 0 0 0 0 0 0 0 0 0 0 0 0 0 0 0 0 0 0 0 0 0
0 0 0 0 0 0 0 0 0 0 0 0 0 0 0 0 0 0 0 0 0 0 0 0 0 0 0 0 0 0 0 0 0 0 0 0 0 0 0 0 0 0 0
0 0 0 0 0 0 0 0 0 0 0 0 0 0 0 0 0 0 0 0 0 0 0 0 0 0 0 0 0 0 0 0 0 0 0 0 0 0 0 0 0 0 0
0 0 0 0 0 0 0 0 0 0 0 0 0 0 0 0 0 0 0 0 0 0 0 0 0 0 0 0 0 0 0 0 0 0 0 0 0 0 0 0 0 0 0
0 0 -0 -0 0 0 0 0 0 0 0 0 0 0 0 0 0 0 0 0 0 0 0 0 0 0 0 0 0 0 0 0 0 0 0 0 0 0 0 0 0 0 0
Wind_Speed
3 3 3 3 2 3 2 2 2 2 2 3 2 2 3 3 3 2 2 2 2 3 3 2 2 1 1 1 0 0 1 1 2 1 1 1 1 0 1 1 1 2 2
3 3 3 2 3 3 2 2 2 2 2 2 2 3 3 3 3 3 3 3 2 3 3 2 3 2 2 1 1 0 0 1 2 1 1 1 1 1 0 1 1 1 1
3 3 3 2 2 2 1 2 2 2 3 3 3 3 3 3 3 3 2 2 2 2 2 2 2 2 1 1 1 0 0 0 1 1 1 1 1 0 1 1 1 1 1
4 3 2 1 1 1 1 2 2 2 3 3 3 3 2 3 3 3 3 2 2 2 2 2 2 1 1 0 0 0 0 1 1 1 1 0 0 0 1 1 1 1 1
4 2 1 1 1 1 1 2 2 2 3 2 3 3 3 3 3 3 3 2 2 3 3 3 3 2 2 0 1 1 1 1 1 1 1 0 0 0 1 1 1 0 1
3 2 2 1 1 1 1 2 2 3 3 3 3 3 3 3 4 4 2 2 2 2 3 3 3 4 4 3 1 1 2 2 2 2 1 2 2 1 1 1 1 0 1
3 2 2 2 1 1 2 2 2 2 2 2 2 2 2 3 4 4 3 2 2 2 2 2 3 3 4 2 2 2 1 1 3 4 3 3 3 3 2 1 2 2 2
3 2 2 2 2 1 2 1 0 1 1 1 1 1 1 3 4 3 3 2 2 2 2 1 2 3 3 2 2 2 2 2 1 2 3 3 3 3 3 3 3 1 1
4 3 3 3 2 2 1 1 1 0 1 1 1 1 1 3 4 4 2 2 2 3 3 2 2 2 3 2 2 1 2 2 2 1 2 3 4 4 3 2 1 2 0
4 3 3 3 2 2 2 1 1 1 1 1 1 2 2 3 4 3 2 1 1 2 3 3 3 3 4 3 1 0 1 2 2 2 2 3 2 3 4 4 4 3 1
3 3 2 2 2 2 2 1 1 1 1 1 2 3 3 3 4 3 2 0 0 1 2 3 3 4 4 3 1 1 2 2 1 1 1 2 2 1 1 2 3 4 3
3 3 2 2 2 2 1 1 1 0 1 2 2 3 3 3 3 3 2 1 0 0 2 3 3 6 5 4 2 2 3 1 0 1 1 1 1 2 2 2 2 3 4
3 2 2 1 1 1 1 1 1 1 1 1 1 2 3 3 3 3 3 3 2 1 2 5 6 6 5 4 4 4 2 0 0 0 1 2 2 2 2 2 2 1 2
3 2 2 1 1 1 1 1 1 2 2 2 2 2 2 2 2 2 2 2 3 3 4 5 6 6 4 3 4 3 1 1 2 2 2 2 2 1 2 1 1 1 1
3 2 2 2 2 2 2 2 3 4 4 4 3 3 3 3 4 4 2 2 2 3 3 3 3 3 3 3 3 2 2 1 1 2 2 2 2 2 2 1 1 1 1
3 2 2 2 2 2 2 3 5 5 7 8 7 6 5 6 6 5 5 5 4 4 1 2 2 3 3 3 3 3 2 2 2 2 2 2 2 2 3 2 1 1 2
4 3 2 2 2 3 2 3 4 5 5 6 8 8 8 7 7 6 5 5 5 2 1 2 3 4 4 4 3 3 3 3 2 2 2 3 3 2 2 2 2 2 3
4 4 3 3 3 4 4 4 3 4 4 4 5 8 8 8 8 7 5 3 3 1 2 3 4 4 4 4 3 3 3 3 2 2 3 3 3 2 2 3 3 3 3
3 3 3 3 3 4 4 3 4 4 4 4 3 4 6 6 7 7 3 2 3 4 4 4 4 4 4 4 4 4 3 3 3 3 3 3 3 3 3 3 3 4 3
3 6 5 3 3 3 3 3 4 4 4 4 4 4 2 1 2 3 3 4 4 5 5 5 5 4 4 4 4 3 3 3 3 3 3 3 3 3 4 4 3 3 3
3 4 6 4 3 4 4 4 4 4 4 5 5 6 6 4 5 6 5 5 5 6 6 5 5 5 4 4 3 4 4 4 4 3 4 4 3 3 3 4 4 4 4
3 3 3 4 4 4 4 4 4 4 5 6 5 5 8 5 5 5 6 6 6 6 6 5 5 5 4 4 4 4 4 4 4 4 4 4 4 4 4 4 4 4 4
3 3 3 4 4 5 5 4 4 4 5 5 5 5 4 5 6 6 6 7 6 6 5 5 5 5 5 4 4 4 4 5 5 5 5 4 4 4 4 4 5 4 4
4 4 4 4 4 4 4 5 4 5 5 5 5 5 5 6 6 7 7 6 6 6 5 5 6 7 9 6 4 4 5 5 5 5 6 5 5 4 4 4 5 5 5
4 4 4 4 4 4 4 5 5 5 5 5 5 5 5 5 6 6 6 6 6 6 6 6 5 6 8 8 7 6 6 7 6 4 4 4 5 5 5 5 5 5 5
4 5 4 4 4 4 4 5 5 5 5 5 5 5 5 5 5 5 5 5 5 5 6 5 6 7 8 7 8 7 6 6 6 6 4 3 4 5 5 5 6 6 6
Wind_Direction
90 89 85 75 71 70 67 50 40 30 27 28 22 29 21 12 7 5 348 353 6 355 354 358 343 331 336 332 321 232 199 169 196 270 292 306 324 354 10 35 45 38 52
119 101 90 77 67 59 45 33 39 35 29 36 42 39 30 22 16 21 12 14 13 358 350 1 347 352 10 350 11 3 236 191 171 202 287 309 292 221 113 59 49 66 65
120 106 94 78 70 60 35 30 38 39 34 31 40 38 30 25 22 19 22 20 8 354 348 346 329 355 359 346 9 14 255 141 142 167 238 292 298 114 76 36 50 42 47
121 114 110 109 107 79 43 41 38 44 48 36 35 38 40 34 25 14 19 19 6 356 351 343 329 324 276 258 293 246 163 108 110 136 150 288 263 115 109 109 23 19 1
128 130 148 151 111 80 58 45 43 40 49 43 42 35 30 28 13 13 12 20 12 356 350 349 353 5 11 347 183 178 145 135 134 146 155 136 229 161 194 199 159 355 322
134 151 151 125 96 77 70 64 53 38 34 37 37 34 24 13 5 18 22 9 358 354 345 342 349 3 10 15 12 193 176 170 176 172 178 182 226 214 196 176 151 105 301
137 138 135 132 112 98 95 74 52 31 35 30 14 28 6 339 354 2 9 18 3 343 334 338 347 357 4 4 12 25 28 192 190 178 181 202 205 206 184 193 197 197 223
139 144 141 133 124 111 93 80 28 11 15 351 331 340 339 332 351 0 17 29 10 352 348 339 337 335 342 354 23 24 5 348 276 190 197 215 215 212 201 201 201 186 306
148 155 156 148 143 146 150 217 242 297 318 299 283 310 324 318 340 352 13 26 9 349 345 342 337 340 338 359 47 31 1 333 332 288 226 234 240 237 209 152 151 127 306
171 170 162 157 159 181 207 230 252 257 271 287 301 295 294 304 324 345 3 42 358 332 332 334 339 341 344 357 64 91 320 302 322 340 334 317 292 260 224 191 180 167 183
171 157 156 168 183 196 214 239 257 286 330 326 310 304 303 299 315 330 350 99 255 312 323 322 318 334 338 339 326 207 239 265 298 321 328 329 332 312 263 209 189 179 182
152 153 169 194 203 186 208 266 272 249 315 307 306 310 309 309 310 320 335 334 187 234 295 298 304 323 328 326 311 274 281 298 21 25 356 321 309 290 281 267 231 213 209
144 162 188 210 223 203 204 242 277 274 263 281 282 286 296 307 312 328 343 344 350 303 281 289 304 318 324 321 309 305 314 343 82 285 269 265 256 256 274 298 300 278 271
161 186 198 197 237 260 246 226 228 245 248 256 248 256 277 292 298 315 323 323 330 329 318 315 318 322 322 299 300 307 290 229 204 223 246 263 281 291 279 260 267 312 329
170 187 199 214 223 249 267 253 237 236 221 218 229 221 221 254 257 249 250 279 293 300 319 334 342 338 333 322 309 295 287 279 240 238 242 262 274 277 275 261 227 204 230
173 192 203 221 236 241 263 295 285 258 260 244 234 225 236 243 251 260 265 275 290 304 339 317 309 306 296 288 289 290 281 260 248 235 238 242 249 253 265 267 230 216 241
187 205 215 225 233 242 244 250 282 300 292 269 251 242 240 250 257 263 275 291 295 281 262 275 274 278 278 276 266 256 257 257 247 234 237 244 243 243 245 255 253 247 253
198 210 214 226 232 239 240 242 241 250 277 289 275 254 249 250 256 264 277 309 303 273 241 259 265 268 269 266 265 262 256 253 240 236 240 242 235 233 241 249 248 244 253
203 224 232 237 240 241 242 246 249 246 249 261 277 279 257 253 261 266 245 224 255 269 261 259 258 259 261 262 259 249 240 236 232 229 235 238 236 229 241 248 249 254 250
219 236 243 248 256 258 254 250 252 251 251 253 256 257 247 212 257 264 236 232 245 259 263 262 261 258 257 256 253 243 237 236 234 233 237 241 238 228 237 246 246 249 251
224 242 252 259 254 252 251 248 247 245 246 248 250 245 215 214 237 246 245 240 242 250 253 255 258 260 256 251 247 244 239 238 234 232 237 241 238 239 243 245 251 251 253
218 233 240 244 253 257 254 251 251 248 247 249 256 258 234 229 241 245 245 249 246 243 241 240 248 251 248 245 238 235 242 242 242 235 234 237 238 244 248 250 254 251 249
219 233 246 252 253 262 266 262 253 251 252 252 251 250 241 235 243 247 248 249 249 248 246 238 244 255 253 246 240 229 232 240 237 225 222 231 237 239 240 242 246 251 251
224 234 243 256 259 260 262 264 262 259 254 254 253 244 241 239 240 245 247 248 244 245 245 238 237 244 249 250 248 242 240 241 238 231 219 221 228 233 235 241 244 245 245
227 238 246 253 257 258 261 265 267 266 264 260 255 251 247 244 244 247 249 248 248 248 248 242 240 242 244 246 247 247 246 243 243 243 233 225 231 232 234 241 244 246 244
232 240 247 252 255 256 256 260 264 265 265 265 261 257 254 253 253 251 248 247 246 246 249 248 242 241 243 247 249 250 247 245 246 244 234 231 238 245 244 248 254 250 249